• In Belarus
  • List of Countries
  • For 7 days
  • Water Temperature
  • Satellite Maps
  • Weather Map
  • Weather Widgets
  • user-avatar
    Login

    Hourly Weather Montana

    Today, 18 November, Saturday

    Time Temperature Precipitation Wind Pressure Humidity
    00:00 +7°C° 0 mm 1 mps 736 mmHg 92%
    01:00 +7°C° 0 mm 1 mps 736 mmHg 92%
    02:00 +7°C° 0 mm 1 mps 735 mmHg 93%
    03:00 +7°C° 0.1 mm 1 mps 735 mmHg 93%
    04:00 +7°C° 0.1 mm 1 mps 735 mmHg 93%
    05:00 +7°C° 0.1 mm 1 mps 735 mmHg 93%
    06:00 +7°C° 0.1 mm 1 mps 735 mmHg 93%
    07:00 +7°C° 0.1 mm 1 mps 734 mmHg 93%
    08:00 +6°C° 0 mm 0 mps 734 mmHg 92%
    09:00 +7°C° 0.1 mm 1 mps 734 mmHg 89%
    10:00 +8°C° 0.1 mm 1 mps 734 mmHg 87%
    11:00 +9°C° 0.1 mm 1 mps 734 mmHg 84%
    12:00 +9°C° 0 mm 1 mps 734 mmHg 83%
    13:00 +9°C° 0 mm 1 mps 734 mmHg 81%
    14:00 +9°C° 0 mm 1 mps 734 mmHg 81%
    15:00 +9°C° 0 mm 1 mps 734 mmHg 83%
    16:00 +9°C° 0 mm 1 mps 734 mmHg 85%
    17:00 +9°C° 0 mm 1 mps 733 mmHg 87%
    18:00 +8°C° 0 mm 1 mps 733 mmHg 89%
    19:00 +8°C° 0 mm 1 mps 733 mmHg 91%
    20:00 +7°C° 0 mm 0 mps 733 mmHg 92%
    21:00 +6°C° 0 mm 0 mps 733 mmHg 92%
    22:00 +6°C° 0 mm 0 mps 733 mmHg 92%
    23:00 +7°C° 0 mm 1 mps 733 mmHg 92%

    Tomorrow, 19 November, Sunday

    Time Temperature Precipitation Wind Pressure Humidity
    00:00 +7°C° 0 mm 1 mps 733 mmHg 92%
    01:00 +7°C° 0 mm 1 mps 733 mmHg 92%
    02:00 +7°C° 0 mm 1 mps 733 mmHg 92%
    03:00 +7°C° 0 mm 1 mps 733 mmHg 92%
    04:00 +7°C° 0 mm 1 mps 732 mmHg 92%
    05:00 +6°C° 0 mm 1 mps 732 mmHg 91%
    06:00 +7°C° 0 mm 1 mps 732 mmHg 90%
    07:00 +7°C° 0 mm 1 mps 732 mmHg 89%
    08:00 +7°C° 0 mm 1 mps 732 mmHg 88%
    09:00 +7°C° 0 mm 2 mps 732 mmHg 82%
    10:00 +8°C° 0 mm 2 mps 732 mmHg 75%
    11:00 +9°C° 0 mm 2 mps 732 mmHg 68%
    12:00 +9°C° 0 mm 2 mps 731 mmHg 65%
    13:00 +10°C° 0 mm 2 mps 731 mmHg 62%
    14:00 +10°C° 0 mm 2 mps 730 mmHg 59%
    15:00 +9°C° 0 mm 2 mps 730 mmHg 62%
    16:00 +8°C° 0 mm 2 mps 730 mmHg 65%
    17:00 +8°C° 0 mm 2 mps 730 mmHg 68%
    18:00 +8°C° 0 mm 1 mps 729 mmHg 70%
    19:00 +8°C° 0 mm 1 mps 729 mmHg 72%
    20:00 +7°C° 0 mm 1 mps 729 mmHg 74%
    21:00 +7°C° 0 mm 1 mps 729 mmHg 74%
    22:00 +7°C° 0 mm 1 mps 729 mmHg 74%
    23:00 +7°C° 0 mm 1 mps 729 mmHg 74%

    Day after tomorrow, 20 November, Monday

    Time Temperature Precipitation Wind Pressure Humidity
    00:00 +6°C° 0.3 mm 2 mps 730 mmHg 74%
    01:00 +5°C° 0.3 mm 3 mps 730 mmHg 74%
    02:00 +4°C° 0.3 mm 3 mps 730 mmHg 73%
    03:00 +4°C° 0.6 mm 4 mps 730 mmHg 75%
    04:00 +4°C° 0.6 mm 4 mps 731 mmHg 77%
    05:00 +3°C° 0.6 mm 4 mps 731 mmHg 78%
    06:00 +3°C° 0.2 mm 4 mps 732 mmHg 79%
    07:00 +3°C° 0.2 mm 4 mps 732 mmHg 79%
    08:00 +3°C° 0.2 mm 4 mps 733 mmHg 79%
    09:00 +2°C° 0 mm 5 mps 733 mmHg 76%
    10:00 +3°C° 0 mm 5 mps 734 mmHg 72%
    11:00 +3°C° 0 mm 6 mps 734 mmHg 68%
    12:00 +3°C° 0 mm 6 mps 734 mmHg 68%
    13:00 +4°C° 0 mm 6 mps 734 mmHg 67%
    14:00 +4°C° 0 mm 6 mps 734 mmHg 66%
    15:00 +3°C° 0 mm 6 mps 734 mmHg 68%
    16:00 +3°C° 0 mm 5 mps 734 mmHg 71%
    17:00 +3°C° 0 mm 4 mps 735 mmHg 73%
    18:00 +3°C° 0 mm 4 mps 735 mmHg 76%
    19:00 +2°C° 0 mm 3 mps 735 mmHg 78%
    20:00 +2°C° 0 mm 3 mps 736 mmHg 81%
    21:00 +2°C° 0 mm 3 mps 736 mmHg 81%
    22:00 +2°C° 0 mm 3 mps 736 mmHg 81%
    23:00 +2°C° 0 mm 3 mps 737 mmHg 81%

    21 November, Tuesday

    Time Temperature Precipitation Wind Pressure Humidity
    00:00 +1°C° 0 mm 3 mps 737 mmHg 81%
    01:00 +1°C° 0 mm 3 mps 737 mmHg 82%
    02:00 +1°C° 0 mm 3 mps 737 mmHg 82%
    03:00 0°C° 0 mm 3 mps 737 mmHg 82%
    04:00 0°C° 0 mm 3 mps 737 mmHg 82%
    05:00 0°C° 0 mm 3 mps 737 mmHg 81%
    06:00 0°C° 0 mm 3 mps 737 mmHg 80%
    07:00 0°C° 0 mm 3 mps 737 mmHg 78%
    08:00 +1°C° 0 mm 2 mps 737 mmHg 77%
    09:00 +2°C° 0 mm 3 mps 737 mmHg 71%
    10:00 +4°C° 0 mm 3 mps 736 mmHg 64%
    11:00 +7°C° 0 mm 3 mps 736 mmHg 57%
    12:00 +8°C° 0 mm 3 mps 736 mmHg 55%
    13:00 +9°C° 0 mm 3 mps 735 mmHg 53%
    14:00 +10°C° 0 mm 4 mps 735 mmHg 51%
    15:00 +9°C° 0 mm 3 mps 735 mmHg 55%
    16:00 +8°C° 0 mm 3 mps 735 mmHg 60%
    17:00 +7°C° 0 mm 3 mps 735 mmHg 64%
    18:00 +7°C° 0 mm 3 mps 735 mmHg 64%
    19:00 +5°C° 0 mm 3 mps 735 mmHg 65%
    20:00 +5°C° 0 mm 3 mps 735 mmHg 65%
    21:00 +5°C° 0 mm 3 mps 735 mmHg 65%
    22:00 +5°C° 0 mm 3 mps 735 mmHg 64%
    23:00 +7°C° 0 mm 3 mps 735 mmHg 63%

    22 November, Wednesday

    Time Temperature Precipitation Wind Pressure Humidity
    00:00 +5°C° 0 mm 3 mps 735 mmHg 64%
    01:00 +5°C° 0 mm 3 mps 735 mmHg 65%
    02:00 +5°C° 0 mm 3 mps 735 mmHg 66%
    03:00 +5°C° 0 mm 3 mps 735 mmHg 66%
    04:00 +5°C° 0 mm 3 mps 735 mmHg 66%
    05:00 +7°C° 0 mm 3 mps 735 mmHg 66%
    06:00 +7°C° 0 mm 3 mps 736 mmHg 68%
    07:00 +7°C° 0 mm 3 mps 736 mmHg 69%
    08:00 +7°C° 0 mm 3 mps 736 mmHg 70%
    09:00 +8°C° 0 mm 3 mps 736 mmHg 68%
    10:00 +9°C° 0 mm 3 mps 737 mmHg 65%
    11:00 +10°C° 0 mm 4 mps 737 mmHg 63%
    12:00 +11°C° 0 mm 4 mps 737 mmHg 61%
    13:00 +12°C° 0 mm 3 mps 737 mmHg 60%
    14:00 +12°C° 0 mm 3 mps 737 mmHg 59%
    15:00 +11°C° 0 mm 3 mps 737 mmHg 63%
    16:00 +10°C° 0 mm 2 mps 737 mmHg 68%
    17:00 +9°C° 0 mm 2 mps 737 mmHg 72%
    18:00 +9°C° 0 mm 2 mps 737 mmHg 73%
    19:00 +8°C° 0 mm 2 mps 738 mmHg 74%
    20:00 +8°C° 0 mm 2 mps 738 mmHg 74%
    21:00 +8°C° 0 mm 2 mps 738 mmHg 74%
    22:00 +7°C° 0 mm 2 mps 739 mmHg 74%
    23:00 +7°C° 0 mm 2 mps 739 mmHg 74%

    23 November, Thursday

    Time Temperature Precipitation Wind Pressure Humidity
    00:00 +8°C° 0 mm 1 mps 739 mmHg 74%
    01:00 +8°C° 0 mm 1 mps 739 mmHg 74%
    02:00 +8°C° 0 mm 1 mps 739 mmHg 74%
    03:00 +7°C° 0 mm 1 mps 739 mmHg 74%
    04:00 +7°C° 0 mm 1 mps 739 mmHg 74%
    05:00 +7°C° 0 mm 1 mps 739 mmHg 74%
    06:00 +7°C° 0 mm 1 mps 739 mmHg 74%
    07:00 +7°C° 0 mm 1 mps 739 mmHg 73%
    08:00 +7°C° 0 mm 1 mps 740 mmHg 73%
    09:00 +9°C° 0 mm 1 mps 740 mmHg 67%
    10:00 +11°C° 0 mm 1 mps 740 mmHg 61%
    11:00 +12°C° 0 mm 0 mps 740 mmHg 55%
    12:00 +14°C° 0 mm 1 mps 740 mmHg 53%
    13:00 +14°C° 0 mm 1 mps 740 mmHg 51%
    14:00 +15°C° 0 mm 1 mps 739 mmHg 48%
    15:00 +14°C° 0 mm 1 mps 739 mmHg 54%
    16:00 +12°C° 0 mm 0 mps 739 mmHg 59%
    17:00 +10°C° 0 mm 0 mps 740 mmHg 64%
    18:00 +11°C° 0 mm 1 mps 740 mmHg 66%
    19:00 +10°C° 0 mm 1 mps 740 mmHg 68%
    20:00 +10°C° 0 mm 1 mps 740 mmHg 69%
    21:00 +9°C° 0 mm 1 mps 741 mmHg 70%
    22:00 +9°C° 0 mm 1 mps 741 mmHg 70%
    23:00 +9°C° 0 mm 1 mps 741 mmHg 71%
    Show more